Trinity Center, CA

10:10 PM PDT on May 27, 2017 (GMT -0700)
Trinity Center

Weather History for KO86 - May, 2014

Change the Weather History Date:

Saturday, May 3, 2014

  Actual Average (KMHS) Record (KMHS)
Temperature  
Mean Temperature 58 °F -  
Max Temperature 71 °F 61 °F 85 °F (2017)
Min Temperature 44 °F 35 °F 25 °F (2007)
Degree Days  
Heating Degree Days 8    
Growing Degree Days 8 (Base 50)    
Moisture  
Dew Point 37 °F    
Average Humidity 47    
Maximum Humidity 81    
Minimum Humidity 22    
Precipitation  
Precipitation 0.00 in - - ()
Sea Level Pressure  
Sea Level Pressure 29.94 in    
Wind  
Wind Speed 5 mph (South)    
Max Wind Speed 16 mph    
Max Gust Speed 24 mph    
Visibility 10 miles    
Events      
Averages and records for this station are not official NWS values.
T = Trace of Precipitation, MM = Missing Value Source: NWS Daily Summary

Daily Weather History Graph

Daily Weather History Graph

Search for Another Location

Airport or City:

Trip Planner

Search our weather history database for the weather conditions in past years. The results will help you decide how hot, cold, wet, or windy it might be!

Date:

Astronomy

May. 03, 2014 Rise Set
Actual Time 6:06 AM PDT 8:09 PM PDT
Civil Twilight 5:36 AM PDT 8:39 PM PDT
Nautical Twilight 4:59 AM PDT 9:16 PM PDT
Astronomical Twilight 4:19 AM PDT 9:57 PM PDT
Moon 9:40 AM PDT (5/3) No Moon Set
Length of Visible Light 15h 03m
Length of Day
14h 03m
Waxing Crescent, 20% of the Moon is Illuminated
May 3
Waxing Crescent
May 6
First Quarter
May 14
Full
May 21
Last Quarter
May 28
New

Hourly Weather History & Observations

Time (PDT) Temp. Windchill Dew Point Humidity Pressure Visibility Wind Dir Wind Speed Gust Speed Precip Events Conditions
12:10 AM 57.2 °F - 39.2 °F 51% 29.99 in 10.0 mi NW 3.5 mph - N/A   Clear
12:30 AM 55.4 °F - 39.2 °F 54% 29.99 in 10.0 mi Calm Calm - N/A   Clear
12:50 AM 53.6 °F - 39.2 °F 58% 29.99 in 10.0 mi NW 5.8 mph - N/A   Clear
1:10 AM 53.6 °F - 39.2 °F 58% 29.99 in 10.0 mi NW 3.5 mph - N/A   Clear
1:30 AM 53.6 °F - 41.0 °F 62% 29.98 in 10.0 mi West 3.5 mph - N/A   Clear
1:50 AM 53.6 °F - 41.0 °F 62% 29.98 in 10.0 mi West 4.6 mph - N/A   Clear
2:10 AM 51.8 °F - 39.2 °F 62% 29.98 in 10.0 mi NW 4.6 mph - N/A   Clear
2:30 AM 51.8 °F - 39.2 °F 62% 29.98 in 10.0 mi WNW 3.5 mph - N/A   Clear
2:50 AM 50.0 °F - 39.2 °F 66% 29.98 in 10.0 mi West 8.1 mph - N/A   Clear
3:10 AM 50.0 °F - 39.2 °F 66% 29.98 in 10.0 mi NW 4.6 mph - N/A   Clear
3:30 AM 50.0 °F - 39.2 °F 66% 29.98 in 10.0 mi NW 4.6 mph - N/A   Clear
3:50 AM 48.2 °F - 39.2 °F 71% 29.98 in 10.0 mi Calm Calm - N/A   Clear
4:10 AM 48.2 °F - 39.2 °F 71% 29.98 in 10.0 mi WNW 3.5 mph - N/A   Clear
4:30 AM 46.4 °F 44.3 °F 39.2 °F 76% 29.98 in 10.0 mi SSE 4.6 mph - N/A   Clear
4:50 AM 46.4 °F - 39.2 °F 76% 29.98 in 10.0 mi Calm Calm - N/A   Clear
5:10 AM 46.4 °F - 39.2 °F 76% 29.98 in 10.0 mi Calm Calm - N/A   Clear
5:30 AM 44.6 °F - 39.2 °F 81% 29.98 in 10.0 mi Calm Calm - N/A   Clear
5:50 AM 44.6 °F - 39.2 °F 81% 29.98 in 10.0 mi Calm Calm - N/A   Clear
6:10 AM 44.6 °F 43.1 °F 39.2 °F 81% 29.99 in 10.0 mi West 3.5 mph - N/A   Clear
6:30 AM 44.6 °F - 39.2 °F 81% 29.99 in 10.0 mi Calm Calm - N/A   Clear
6:50 AM 46.4 °F - 39.2 °F 76% 29.99 in 10.0 mi Calm Calm - N/A   Clear
7:10 AM 48.2 °F - 41.0 °F 76% 29.99 in 10.0 mi Calm Calm - N/A   Clear
7:30 AM 50.0 °F - 41.0 °F 71% 29.99 in 10.0 mi ENE 3.5 mph - N/A   Clear
7:50 AM 51.8 °F - 41.0 °F 67% 29.99 in 10.0 mi Calm Calm - N/A   Clear
8:10 AM 53.6 °F - 41.0 °F 62% 29.99 in 10.0 mi Calm Calm - N/A   Clear
8:30 AM 53.6 °F - 41.0 °F 62% 29.99 in 10.0 mi Calm Calm - N/A   Clear
8:50 AM 57.2 °F - 41.0 °F 55% 29.99 in 10.0 mi SSE 4.6 mph - N/A   Clear
9:10 AM 57.2 °F - 39.2 °F 51% 29.99 in 10.0 mi SE 4.6 mph - N/A   Clear
9:30 AM 59.0 °F - 41.0 °F 51% 29.98 in 10.0 mi South 5.8 mph - N/A   Clear
10:10 AM 62.6 °F - 39.2 °F 42% 29.98 in 10.0 mi Calm Calm - N/A   Clear
10:30 AM 62.6 °F - 39.2 °F 42% 29.98 in 10.0 mi SE 4.6 mph - N/A   Clear
10:50 AM 64.4 °F - 33.8 °F 32% 29.97 in 10.0 mi SSE 11.5 mph 16.1 mph N/A   Clear
11:10 AM 66.2 °F - 32.0 °F 28% 29.97 in 10.0 mi SSE 12.7 mph 17.3 mph N/A   Clear
11:30 AM 64.4 °F - 32.0 °F 30% 29.96 in 10.0 mi SSE 11.5 mph 17.3 mph N/A   Clear
11:50 AM 66.2 °F - 32.0 °F 28% 29.96 in 10.0 mi SSE 9.2 mph 16.1 mph N/A   Clear
12:10 PM 66.2 °F - 30.2 °F 26% 29.95 in 10.0 mi WSW 5.8 mph - N/A   Clear
12:30 PM 68.0 °F - 32.0 °F 26% 29.94 in 10.0 mi SSE 10.4 mph 20.7 mph N/A   Clear
12:50 PM 68.0 °F - 28.4 °F 23% 29.93 in 10.0 mi SSE 8.1 mph 18.4 mph N/A   Clear
1:10 PM 68.0 °F - 30.2 °F 24% 29.93 in 10.0 mi South 11.5 mph 19.6 mph N/A   Clear
1:30 PM 71.6 °F - 32.0 °F 23% 29.92 in 10.0 mi SSE 15.0 mph 21.9 mph N/A   Clear
1:50 PM 71.6 °F - 30.2 °F 22% 29.91 in 10.0 mi SSE 9.2 mph 17.3 mph N/A   Clear
2:10 PM 71.6 °F - 30.2 °F 22% 29.91 in 10.0 mi South 8.1 mph 16.1 mph N/A   Clear
2:30 PM 71.6 °F - 30.2 °F 22% 29.90 in 10.0 mi South 12.7 mph 17.3 mph N/A   Clear
2:50 PM 71.6 °F - 32.0 °F 23% 29.90 in 10.0 mi South 11.5 mph 19.6 mph N/A   Clear
3:10 PM 71.6 °F - 32.0 °F 23% 29.88 in 10.0 mi South 12.7 mph 20.7 mph N/A   Clear
3:30 PM 71.6 °F - 32.0 °F 23% 29.88 in 10.0 mi South 12.7 mph 21.9 mph N/A   Clear
3:50 PM 71.6 °F - 33.8 °F 25% 29.87 in 10.0 mi South 10.4 mph 19.6 mph N/A   Clear
4:10 PM 71.6 °F - 33.8 °F 25% 29.87 in 10.0 mi SSE 15.0 mph 23.0 mph N/A   Clear
4:30 PM 71.6 °F - 35.6 °F 27% 29.86 in 10.0 mi SSW 9.2 mph 21.9 mph N/A   Clear
4:50 PM 71.6 °F - 35.6 °F 27% 29.86 in 10.0 mi South 13.8 mph 19.6 mph N/A   Clear
5:10 PM 71.6 °F - 37.4 °F 29% 29.86 in 10.0 mi South 13.8 mph 23.0 mph N/A   Clear
5:30 PM 71.6 °F - 37.4 °F 29% 29.86 in 10.0 mi South 16.1 mph 24.2 mph N/A   Clear
5:50 PM 69.8 °F - 37.4 °F 31% 29.86 in 10.0 mi South 12.7 mph 24.2 mph N/A   Clear
6:10 PM 69.8 °F - 37.4 °F 31% 29.86 in 10.0 mi South 13.8 mph 21.9 mph N/A   Partly Cloudy
6:30 PM 68.0 °F - 37.4 °F 33% 29.86 in 10.0 mi South 12.7 mph 20.7 mph N/A   Partly Cloudy
6:50 PM 68.0 °F - 37.4 °F 33% 29.86 in 10.0 mi WSW 5.8 mph 19.6 mph N/A   Clear
7:10 PM 66.2 °F - 37.4 °F 35% 29.87 in 10.0 mi SSW 11.5 mph 16.1 mph N/A   Clear
7:30 PM 64.4 °F - 37.4 °F 37% 29.87 in 10.0 mi South 10.4 mph 19.6 mph N/A   Clear
7:50 PM 62.6 °F - 37.4 °F 39% 29.87 in 10.0 mi SSW 11.5 mph 16.1 mph N/A   Clear
8:10 PM 62.6 °F - 37.4 °F 39% 29.88 in 10.0 mi South 9.2 mph 16.1 mph N/A   Clear
8:30 PM 62.6 °F - 33.8 °F 34% 29.89 in 10.0 mi South 13.8 mph 18.4 mph N/A   Clear
8:50 PM 60.8 °F - 37.4 °F 42% 29.89 in 10.0 mi South 12.7 mph 23.0 mph N/A   Clear
9:10 PM 59.0 °F - 39.2 °F 48% 29.91 in 10.0 mi South 12.7 mph 19.6 mph N/A   Clear
9:30 PM 59.0 °F - 39.2 °F 48% 29.92 in 10.0 mi South 12.7 mph 17.3 mph N/A   Clear
9:50 PM 57.2 °F - 39.2 °F 51% 29.92 in 10.0 mi South 9.2 mph 20.7 mph N/A   Clear
10:10 PM 57.2 °F - 37.4 °F 48% 29.93 in 10.0 mi SSW 6.9 mph - N/A   Clear
10:30 PM 57.2 °F - 37.4 °F 48% 29.94 in 10.0 mi Calm Calm - N/A   Clear
10:50 PM 55.4 °F - 37.4 °F 51% 29.94 in 10.0 mi South 5.8 mph - N/A   Clear
11:10 PM 55.4 °F - 37.4 °F 51% 29.94 in 10.0 mi Calm Calm - N/A   Clear
11:30 PM 55.4 °F - 39.2 °F 54% 29.94 in 10.0 mi Calm Calm - N/A   Clear
11:50 PM 53.6 °F - 37.4 °F 54% 29.95 in 10.0 mi Calm Calm - N/A   Clear